{"data":{"norad_id":46048,"intl_designator":"2020-055X","name":"STARLINK-1527","alt_names":[],"object_type":"PAYLOAD","status":"ACTIVE","operator":null,"country":"US","launch_date":"2020-08-07","launch_site_code":"AFETR","launch_vehicle":null,"mission":null,"orbit_class":"UNKNOWN","rcs_meters":null,"size_class":null,"mass_kg":null,"dimensions":null,"purposes":["comms"],"wikipedia_slug":null,"has_3d_model":false,"image_url":null,"decayed_at":null,"tle_current":{"epoch":"2026-09-19T19:38:26.512224Z","epoch_age_seconds":77116,"freshness":"FRESH","line1":"1 46048U 20055X   26262.81836241  .00000622  00000+0  31794-4 0  9992","line2":"2 46048  53.1592 290.5575 0001204  78.9516 281.1621 15.31704135338785","mean_motion":15.31704135,"eccentricity":0.0001204,"inclination_deg":53.1592,"raan_deg":290.5575,"arg_perigee_deg":78.9516,"mean_anomaly_deg":281.1621,"bstar":3.1794e-5,"rev_number":33878,"period_min":94.01293416238,"perigee_km":469.90306572739,"apogee_km":471.5522723397,"semimajor_km":6848.8646690335,"source":"CELESTRAK","updated_at":"2026-09-20T09:00:38.461733Z"}}}